Temperature
18 18 18 18 18 18 18 18 17 17 17 17 17 17 17 17 17 17 17 17 17 17 17 17 17 17 17 17 17 17 17 17 17 17 17 17 16 16 16 16 16 16 16
18 18 18 18 18 18 18 18 17 17 17 17 17 17 17 17 17 17 17 17 17 17 17 17 17 17 17 17 17 17 17 17 17 17 17 16 16 16 16 16 16 16 16
18 18 18 18 18 18 18 17 17 17 17 17 17 17 17 17 17 17 17 17 17 17 17 17 17 17 17 17 17 17 17 17 17 17 17 16 16 16 16 16 16 16 16
18 18 18 18 18 18 18 18 17 17 17 17 17 17 17 17 17 17 17 17 17 17 17 17 17 17 17 17 17 17 17 17 17 17 16 16 16 16 16 16 16 16 16
18 18 18 18 18 18 18 18 17 17 17 17 17 17 17 17 17 17 17 17 17 17 17 17 17 17 17 17 17 17 17 17 17 16 16 16 16 16 16 16 16 16 16
18 18 18 18 18 18 18 17 17 17 17 17 17 17 17 17 17 17 17 17 17 17 17 17 17 17 17 17 17 17 17 17 16 16 16 16 16 16 16 16 16 16 16
18 18 18 18 18 18 18 17 17 17 17 17 17 17 17 17 17 17 17 17 17 17 17 17 17 17 17 17 17 17 17 17 17 17 16 16 16 16 16 16 16 16 16
18 18 18 18 18 17 17 17 17 17 17 17 17 17 17 17 17 17 17 17 17 17 17 17 17 17 17 17 17 17 17 17 16 16 16 16 16 16 16 16 16 16 16
17 17 17 17 17 17 17 17 17 17 17 17 17 17 16 16 17 17 17 17 17 17 17 16 16 16 16 16 16 16 16 16 16 16 16 16 16 16 16 16 16 15 15
17 17 17 17 17 17 17 17 17 17 17 17 17 17 16 16 16 16 16 17 17 17 17 17 16 16 16 16 16 16 16 16 16 16 16 16 16 16 16 16 15 15 15
17 17 17 17 17 17 17 17 17 17 17 17 17 16 16 16 16 16 16 16 16 16 16 16 16 16 16 16 16 16 16 16 16 16 16 16 16 16 16 15 15 15 15
17 17 17 17 17 17 17 17 17 17 17 17 16 16 16 16 16 16 16 16 16 16 16 16 16 16 16 16 16 16 16 16 16 16 16 15 16 15 15 15 15 15 15
17 17 17 17 17 17 17 17 17 17 17 17 16 16 16 16 16 16 16 16 15 16 16 16 16 15 15 15 15 15 15 15 15 15 15 15 15 15 15 15 15 15 14
17 17 17 17 17 17 17 17 17 16 16 16 16 16 16 16 16 16 16 15 15 15 15 15 15 15 15 15 15 15 15 15 15 15 15 15 15 15 15 14 14 14 14
17 17 17 17 17 17 16 16 16 16 16 16 16 16 16 16 16 16 16 15 15 15 14 15 15 15 15 15 15 15 15 14 14 14 14 14 14 14 14 14 14 14 14
17 17 17 17 17 16 16 16 16 16 16 16 16 16 16 16 16 16 15 15 15 15 14 14 14 14 14 14 14 14 14 14 14 14 14 14 14 14 14 13 13 13 13
17 17 17 16 16 16 16 16 16 16 16 16 16 16 15 15 15 15 15 15 15 15 14 14 14 14 14 14 14 14 14 13 13 13 13 13 13 13 13 13 13 13 13
17 17 16 16 16 16 16 16 16 16 16 16 15 15 15 15 15 15 15 15 15 14 14 14 14 13 13 13 13 13 13 13 13 13 13 13 12 12 12 12 12 12 12
17 16 16 16 16 16 16 16 15 15 15 15 15 15 15 15 15 15 14 14 14 14 14 14 13 13 13 13 13 13 12 12 12 12 12 12 12 12 12 12 12 12 12
16 16 16 16 16 16 15 15 15 15 15 15 15 15 15 14 14 14 14 14 14 14 14 13 13 13 13 12 12 12 12 12 12 12 12 12 12 11 11 11 11 11 11
16 16 16 16 15 15 15 15 15 15 15 15 15 14 14 14 14 14 14 14 13 13 13 13 13 12 12 12 12 12 12 12 11 11 11 11 11 11 11 11 11 11 11
16 16 15 15 15 15 15 15 15 14 14 14 14 14 14 14 13 13 13 13 13 13 13 13 12 12 12 12 12 12 12 11 11 11 11 11 11 11 11 10 10 10 10
16 15 15 15 15 15 14 14 14 14 14 14 14 14 14 13 13 13 13 13 13 12 12 12 12 12 12 12 12 12 11 11 11 11 11 11 10 10 10 10 10 10 10
15 15 15 15 15 14 14 14 14 14 14 14 13 13 13 13 13 13 13 12 12 12 12 12 12 12 11 11 11 11 11 11 11 10 10 10 10 10 10 10 10 10 10
15 15 15 15 14 14 14 14 14 14 14 13 13 13 13 13 12 12 12 12 12 12 11 11 11 11 11 11 11 11 10 10 10 10 10 10 10 10 10 10 10 9 9
15 14 14 14 14 14 14 14 14 13 13 13 13 13 12 12 12 12 12 12 12 11 11 11 11 11 11 11 10 10 10 10 10 10 9 9 9 9 9 9 9 9 9
Wind_Speed
1 1 1 1 1 1 1 1 0 0 0 0 1 2 2 3 3 4 5 8 10 11 13 14 14 14 14 14 14 14 13 13 12 12 12 12 11 11 11 11 10 10 10
2 1 1 0 1 1 1 1 1 1 0 0 1 2 2 3 3 3 4 6 9 11 12 14 14 15 15 15 15 15 14 14 14 14 13 13 12 12 12 12 12 12 12
3 2 1 1 1 2 2 1 1 1 1 1 1 1 2 2 2 3 3 4 6 8 11 13 14 14 15 16 15 15 15 14 14 15 15 14 14 13 13 14 13 13 13
4 3 2 2 2 1 1 1 1 1 1 1 1 1 1 1 2 3 3 4 5 6 8 10 12 13 14 15 15 15 15 15 15 15 15 14 14 14 15 15 14 15 14
5 4 2 2 2 1 1 2 1 1 1 1 1 1 1 1 1 2 2 3 4 5 6 8 10 11 12 13 14 14 14 15 15 15 14 14 13 14 14 14 15 15 14
3 3 2 2 2 2 1 1 1 1 1 1 0 0 0 1 1 1 2 3 4 4 5 6 7 8 10 11 11 12 13 13 14 15 14 14 13 14 14 14 15 15 15
2 2 1 1 2 2 2 2 2 1 1 1 1 1 2 1 1 1 1 2 2 3 4 4 5 5 6 9 10 10 12 13 13 13 13 13 13 13 14 14 13 14 14
2 2 2 2 2 2 2 2 2 1 1 1 1 1 1 2 1 1 1 2 2 1 2 3 3 4 5 5 6 8 9 10 12 12 12 12 12 12 12 12 12 13 14
2 2 2 2 2 2 3 3 3 3 2 1 1 2 2 2 1 1 1 1 1 1 2 2 3 4 4 4 5 7 8 8 10 11 10 10 11 11 11 11 11 11 11
1 1 2 2 2 2 3 3 3 3 3 2 1 2 2 2 2 1 1 1 1 2 3 2 3 4 4 4 5 5 7 8 8 9 10 10 10 10 10 11 10 10 9
1 1 2 2 2 2 3 3 2 3 3 3 2 2 2 1 2 2 2 2 1 2 2 3 3 3 4 4 5 5 6 6 6 6 7 8 9 9 9 9 9 9 8
1 1 1 1 2 2 3 3 3 4 3 3 2 2 2 2 3 3 3 3 2 2 2 2 2 3 3 4 5 5 5 6 6 6 5 6 7 8 8 8 9 8 7
1 2 1 1 1 2 2 2 2 3 3 3 3 3 3 3 2 3 2 2 2 1 1 1 2 2 3 3 3 4 4 5 5 5 4 4 4 4 4 5 6 6 6
2 2 1 1 2 2 2 1 1 2 2 3 3 3 2 3 3 3 3 2 1 1 1 2 1 1 2 2 2 3 2 3 3 3 3 3 2 1 1 1 1 2 3
1 1 1 1 1 1 1 1 1 1 1 2 2 2 2 2 2 2 2 3 3 2 2 1 1 1 1 0 1 2 2 3 3 4 4 3 3 3 2 2 1 2 2
0 1 0 0 0 0 1 1 0 0 0 0 0 1 1 1 1 1 2 2 2 3 2 1 1 1 1 1 1 1 1 2 3 3 3 3 3 4 4 3 3 3 3
1 0 0 1 0 0 0 1 1 1 1 0 0 1 0 1 1 1 1 1 2 2 2 1 1 1 1 1 2 3 3 3 3 3 3 3 4 4 4 4 3 3 4
1 1 1 1 0 0 1 1 1 1 1 0 0 0 0 1 1 1 1 1 1 2 2 1 0 1 1 1 2 3 3 4 4 5 5 5 5 5 5 5 5 5 5
1 1 1 1 1 1 1 1 1 1 1 1 1 1 1 1 1 1 1 1 1 2 2 2 1 0 1 2 2 3 3 2 3 4 5 5 5 5 5 4 4 5 5
1 1 1 1 1 1 1 1 1 1 1 1 1 2 1 1 1 1 1 1 2 2 2 2 2 1 1 1 2 2 2 1 1 3 3 4 4 4 4 4 4 4 4
2 1 2 1 1 0 1 1 1 1 1 2 2 2 2 2 2 2 2 2 2 2 2 2 2 1 1 1 1 1 1 1 1 1 1 2 2 2 1 1 2 3 3
2 2 2 1 1 1 1 3 3 2 1 2 1 2 2 3 3 4 4 3 3 3 3 2 2 2 1 1 1 1 1 1 0 1 1 1 1 1 1 1 1 3 4
2 2 2 2 1 1 1 3 4 3 2 2 1 2 2 3 3 3 4 5 4 3 2 3 3 2 2 1 2 2 1 1 1 0 1 1 1 1 1 1 1 3 4
2 1 1 1 1 1 1 3 4 3 3 2 2 2 2 2 2 3 4 4 3 3 2 1 1 1 1 1 2 2 2 2 1 1 1 0 0 1 1 1 0 2 3
1 1 1 1 0 1 0 3 4 3 2 2 1 2 2 1 2 4 4 3 2 2 3 4 3 3 3 4 4 3 3 2 1 1 1 0 0 0 1 1 1 1 3
2 2 1 0 0 1 0 3 4 3 3 2 1 1 1 2 2 4 3 3 2 1 1 2 3 4 3 3 4 2 3 2 1 0 0 0 0 0 0 0 1 1 1
Wind_Direction
122 102 109 113 112 119 128 134 152 134 64 222 214 205 213 214 209 215 216 213 211 208 209 209 209 208 207 206 207 206 206 206 208 209 208 209 211 211 211 210 210 212 213
158 149 165 191 218 196 193 190 193 174 225 231 248 226 221 218 213 216 222 223 221 216 215 216 216 214 212 212 212 212 212 211 213 214 215 215 215 217 218 218 217 219 220
181 176 180 221 231 201 186 166 139 132 165 196 241 236 223 218 217 225 227 224 226 225 223 221 222 222 221 220 219 218 218 218 219 218 219 221 221 223 225 225 223 224 224
189 181 189 223 228 182 167 153 155 141 162 176 229 258 236 227 237 233 231 230 230 230 232 229 228 229 229 229 227 226 225 224 224 224 224 225 226 226 227 228 229 229 229
187 181 195 214 195 170 177 196 163 158 180 199 218 240 237 231 245 246 234 234 233 233 238 240 236 234 234 233 232 233 230 226 224 224 224 226 228 229 229 229 230 231 230
183 176 192 202 170 154 181 181 173 152 157 178 209 335 341 273 243 253 244 239 237 235 240 244 243 241 239 237 237 240 236 230 225 225 226 228 230 232 231 232 232 231 231
173 157 181 183 169 175 190 173 158 138 109 107 84 12 355 353 282 262 248 245 247 241 237 240 243 244 248 247 242 243 244 236 231 228 228 228 231 232 231 231 232 232 231
183 176 172 187 186 179 176 174 158 144 159 139 135 100 335 335 323 279 243 235 247 240 232 239 241 235 242 243 244 243 249 242 233 230 229 225 226 229 231 231 231 232 232
212 194 191 188 192 187 202 206 185 176 189 198 168 158 173 240 296 327 295 243 231 233 240 229 231 235 233 234 242 241 242 246 238 231 229 225 225 227 228 228 230 232 231
239 222 212 196 194 198 213 221 202 195 182 203 210 212 199 175 196 281 315 289 245 241 244 241 239 237 236 237 244 249 246 244 241 237 235 231 228 227 225 225 227 231 228
285 252 214 202 202 211 223 224 205 198 195 198 199 196 210 208 202 201 260 288 282 260 244 242 244 247 246 243 246 246 236 230 230 234 243 241 232 227 225 226 227 228 229
287 275 220 209 212 218 226 225 216 208 208 210 206 193 188 194 204 199 224 249 262 272 261 255 248 246 247 245 241 232 223 221 219 219 231 243 241 235 232 231 228 226 225
259 268 239 219 225 225 225 219 212 218 210 207 211 215 213 219 199 189 199 230 253 284 291 267 259 248 247 241 235 228 226 216 208 209 218 231 238 236 230 225 223 226 233
233 236 215 220 230 227 224 200 206 220 205 205 216 213 215 225 211 203 195 189 229 275 289 277 296 268 258 231 216 199 197 168 168 177 178 175 171 187 193 176 176 224 244
239 198 187 223 249 231 211 184 210 230 206 208 219 211 211 226 214 212 201 193 194 232 271 270 277 318 306 227 193 170 172 154 157 155 152 148 132 111 99 104 151 169 158
138 121 115 107 27 293 197 169 198 262 184 268 207 176 192 211 200 182 186 195 199 202 235 269 263 315 339 43 71 122 131 118 115 131 134 133 127 123 118 122 136 145 139
134 149 156 101 73 329 121 134 135 116 132 52 43 131 199 159 153 154 154 156 166 169 209 273 292 338 11 42 51 75 80 83 79 92 108 114 118 118 113 105 101 108 109
87 122 128 129 172 148 124 142 145 132 146 109 20 80 3 101 99 110 133 139 159 171 173 202 319 15 27 51 61 76 83 86 80 75 87 94 104 111 109 104 99 98 97
77 75 105 134 148 145 132 131 136 133 126 100 73 76 45 82 87 86 109 124 134 127 141 153 155 43 57 74 69 75 75 73 79 75 83 90 100 113 112 108 103 104 105
92 84 80 100 118 124 125 128 121 112 94 82 73 69 56 93 141 141 129 126 121 111 117 129 120 92 77 69 84 92 75 58 58 63 71 79 88 103 108 109 108 112 114
99 102 90 70 53 88 137 138 136 122 106 86 64 51 53 69 84 106 120 130 131 126 122 126 124 110 109 104 111 139 140 100 50 53 63 52 68 73 80 116 135 142 137
83 82 77 75 52 25 85 117 129 125 110 98 74 47 48 51 65 76 86 98 117 138 151 152 156 159 179 181 158 152 147 120 90 24 101 41 62 51 33 78 126 145 150
96 84 70 69 59 16 108 123 121 125 114 102 94 70 61 53 65 79 80 78 70 79 137 168 168 192 192 203 169 156 148 134 157 63 123 46 37 32 1 12 135 162 167
118 108 93 83 44 343 143 141 128 119 104 91 91 99 99 66 70 97 93 79 62 48 59 113 152 188 181 154 156 159 154 126 79 57 96 119 351 321 334 337 350 181 186
137 143 139 143 130 316 155 147 139 126 110 92 81 91 114 109 85 110 109 101 74 35 49 76 98 97 96 102 119 115 113 120 98 11 33 151 259 314 318 314 315 240 213
175 172 159 170 251 299 279 148 146 140 131 119 82 61 80 119 116 129 132 130 119 353 32 53 55 58 70 90 113 137 152 143 136 184 109 151 140 113 286 311 304 285 237
Height
1539 1540 1541 1542 1543 1544 1545 1546 1547 1547 1548 1549 1550 1550 1551 1551 1552 1552 1553 1553 1554 1555 1556 1557 1559 1560 1562 1563 1564 1565 1567 1568 1569 1570 1571 1572 1573 1574 1575 1576 1577 1578 1579
1541 1542 1542 1543 1544 1545 1545 1546 1547 1548 1549 1549 1550 1551 1551 1551 1552 1552 1552 1553 1554 1555 1556 1556 1558 1559 1560 1562 1563 1564 1565 1566 1567 1568 1570 1571 1572 1573 1574 1574 1575 1576 1577
1541 1542 1543 1544 1545 1545 1546 1547 1547 1548 1549 1549 1550 1550 1551 1551 1551 1551 1552 1552 1553 1554 1554 1555 1556 1557 1559 1560 1561 1562 1563 1564 1565 1566 1568 1569 1570 1570 1571 1572 1573 1574 1575
1542 1543 1543 1544 1545 1545 1546 1546 1547 1547 1548 1549 1549 1549 1550 1550 1550 1551 1551 1551 1552 1552 1553 1554 1555 1556 1557 1558 1559 1560 1561 1562 1563 1564 1565 1566 1567 1568 1569 1569 1570 1571 1572
1542 1543 1543 1544 1545 1545 1545 1546 1546 1547 1547 1548 1548 1549 1549 1549 1549 1549 1550 1550 1551 1551 1552 1553 1553 1554 1555 1556 1556 1558 1559 1560 1560 1561 1562 1563 1564 1564 1565 1566 1567 1568 1568
1542 1542 1543 1543 1544 1544 1544 1545 1545 1546 1546 1547 1547 1547 1547 1548 1548 1548 1548 1548 1549 1549 1550 1551 1551 1552 1552 1553 1554 1555 1556 1557 1557 1558 1559 1560 1560 1561 1561 1562 1563 1564 1565
1542 1542 1542 1542 1543 1543 1543 1544 1544 1545 1545 1546 1546 1546 1546 1546 1546 1547 1547 1547 1547 1548 1548 1549 1549 1550 1550 1551 1551 1552 1553 1553 1554 1555 1556 1556 1557 1557 1558 1558 1559 1560 1561
1541 1541 1541 1541 1542 1542 1542 1543 1543 1543 1544 1544 1545 1545 1545 1546 1544 1545 1545 1545 1546 1546 1546 1546 1547 1547 1547 1548 1548 1549 1549 1550 1550 1551 1552 1553 1553 1554 1554 1555 1555 1556 1557
1540 1541 1540 1540 1541 1541 1541 1541 1542 1542 1542 1543 1543 1544 1544 1543 1543 1543 1543 1543 1544 1544 1544 1544 1544 1545 1545 1545 1546 1546 1546 1547 1547 1548 1548 1549 1550 1550 1550 1550 1551 1552 1553
1539 1539 1539 1539 1539 1540 1540 1540 1540 1540 1541 1541 1541 1542 1542 1542 1542 1541 1542 1542 1542 1542 1542 1542 1542 1542 1542 1543 1543 1543 1543 1544 1544 1544 1545 1545 1545 1546 1546 1547 1547 1548 1549
1538 1538 1538 1538 1538 1538 1538 1538 1538 1538 1538 1539 1539 1539 1540 1540 1540 1539 1539 1539 1539 1539 1539 1539 1539 1539 1540 1540 1540 1540 1540 1540 1540 1540 1541 1541 1541 1542 1542 1543 1543 1544 1545
1536 1536 1536 1536 1536 1536 1536 1536 1536 1536 1536 1536 1536 1537 1537 1537 1537 1537 1536 1536 1536 1536 1536 1536 1536 1537 1537 1537 1537 1537 1537 1537 1537 1537 1537 1538 1537 1538 1539 1539 1540 1541 1541
1534 1535 1535 1535 1535 1535 1534 1534 1534 1534 1534 1533 1534 1534 1534 1534 1535 1535 1535 1534 1533 1533 1533 1534 1534 1534 1534 1534 1534 1534 1534 1534 1534 1534 1534 1535 1534 1535 1535 1536 1536 1536 1537
1533 1533 1533 1533 1533 1533 1533 1533 1532 1532 1532 1531 1531 1532 1531 1531 1532 1532 1532 1532 1531 1531 1530 1531 1531 1531 1531 1531 1531 1531 1531 1531 1531 1531 1531 1531 1531 1531 1532 1532 1532 1533 1534
1532 1532 1532 1532 1532 1531 1531 1531 1531 1530 1530 1530 1529 1529 1529 1529 1529 1529 1529 1529 1530 1529 1528 1528 1529 1529 1528 1528 1528 1528 1528 1528 1528 1528 1528 1528 1529 1529 1529 1529 1529 1530 1530
1530 1531 1531 1530 1530 1530 1530 1529 1529 1529 1529 1528 1528 1527 1527 1526 1526 1526 1526 1526 1527 1527 1526 1526 1526 1526 1526 1525 1525 1525 1525 1526 1525 1526 1526 1526 1526 1526 1526 1527 1527 1527 1528
1529 1529 1529 1529 1529 1529 1528 1528 1528 1527 1527 1526 1526 1525 1525 1525 1524 1524 1524 1524 1524 1524 1524 1524 1524 1524 1523 1523 1523 1523 1523 1523 1523 1523 1523 1524 1524 1524 1525 1525 1525 1525 1526
1527 1527 1527 1527 1527 1527 1527 1527 1526 1526 1525 1524 1524 1524 1523 1523 1522 1522 1522 1521 1521 1521 1521 1521 1522 1522 1522 1521 1521 1521 1521 1521 1521 1522 1522 1522 1522 1523 1523 1523 1524 1524 1524
1526 1526 1526 1526 1526 1526 1525 1525 1525 1524 1523 1523 1522 1522 1522 1521 1520 1520 1520 1519 1519 1519 1519 1519 1520 1520 1520 1520 1520 1520 1520 1520 1520 1520 1520 1521 1521 1521 1521 1522 1522 1523 1523
1525 1525 1525 1525 1524 1524 1524 1524 1523 1523 1522 1521 1521 1520 1520 1520 1519 1518 1518 1518 1518 1518 1518 1518 1518 1518 1518 1518 1518 1518 1518 1518 1519 1519 1519 1520 1520 1520 1521 1521 1521 1522 1522
1523 1524 1523 1523 1523 1523 1522 1522 1522 1521 1520 1520 1519 1519 1518 1518 1518 1517 1517 1516 1517 1516 1516 1516 1516 1516 1517 1517 1517 1517 1517 1517 1518 1518 1518 1519 1519 1519 1519 1519 1520 1520 1520
1521 1522 1522 1522 1521 1521 1521 1521 1520 1520 1519 1519 1518 1518 1518 1517 1517 1516 1516 1516 1516 1516 1515 1515 1515 1515 1515 1516 1516 1516 1516 1516 1516 1518 1517 1517 1518 1518 1518 1518 1518 1519 1519
1520 1520 1520 1520 1520 1520 1520 1519 1519 1518 1518 1517 1517 1517 1517 1516 1516 1516 1516 1515 1515 1515 1515 1515 1514 1514 1515 1515 1515 1515 1515 1515 1515 1516 1516 1516 1517 1517 1517 1517 1517 1517 1517
1518 1518 1518 1518 1518 1518 1518 1518 1518 1517 1516 1516 1516 1516 1516 1516 1516 1515 1515 1515 1514 1514 1514 1514 1514 1514 1514 1514 1514 1514 1514 1514 1514 1515 1515 1515 1515 1515 1516 1516 1516 1516 1516
1516 1516 1516 1516 1516 1516 1516 1516 1516 1515 1515 1515 1515 1515 1515 1515 1515 1515 1514 1514 1514 1514 1514 1514 1514 1514 1514 1513 1513 1513 1513 1513 1513 1513 1514 1514 1514 1514 1514 1514 1514 1514 1515
1515 1515 1514 1514 1514 1514 1514 1514 1514 1514 1513 1513 1513 1514 1514 1514 1514 1514 1513 1513 1513 1513 1513 1513 1513 1513 1513 1513 1512 1512 1512 1512 1512 1512 1512 1512 1512 1513 1513 1513 1513 1513 1513